Time,TemperatureF,DewpointF,PressureIn,WindDirection,WindDirectionDegrees,WindSpeedMPH,WindSpeedGustMPH,Humidity,HourlyPrecipIn,Conditions,Clouds,dailyrainin,SoftwareType,DateUTC
2013-01-11 17:47:00,33.8,32.5,29.83,West,276,0.0,0.0,95,0.00,,,0.00,VWS V12.08,2013-01-11 16:47:00,
2013-01-11 17:52:00,33.6,32.3,29.83,NW,321,0.0,0.0,95,0.08,,,0.00,VWS V12.08,2013-01-11 16:52:00,
2013-01-11 17:57:00,33.6,32.1,29.83,NNW,344,0.0,0.0,94,0.08,,,0.00,VWS V12.08,2013-01-11 16:57:00,
2013-01-11 18:02:00,33.4,31.9,29.83,West,269,0.0,0.0,94,0.08,,,0.00,VWS V12.08,2013-01-11 17:02:00,
2013-01-11 18:07:00,33.3,31.5,29.83,West,277,0.0,0.0,93,0.08,,,0.00,VWS V12.08,2013-01-11 17:07:00,
2013-01-11 18:12:00,33.3,31.5,29.83,West,279,0.0,0.0,93,0.08,,,0.00,VWS V12.08,2013-01-11 17:12:00,
2013-01-11 18:17:00,33.1,31.0,29.83,WNW,286,0.0,0.0,92,0.08,,,0.00,VWS V12.08,2013-01-11 17:17:00,
2013-01-11 18:22:00,32.9,30.8,29.85,West,263,0.0,0.0,92,0.08,,,0.00,VWS V12.08,2013-01-11 17:22:00,
2013-01-11 18:27:00,32.7,30.4,29.85,WSW,256,0.0,0.0,91,0.08,,,0.00,VWS V12.08,2013-01-11 17:27:00,
2013-01-11 18:32:00,32.7,30.1,29.85,West,277,0.0,0.0,90,0.08,,,0.00,VWS V12.08,2013-01-11 17:32:00,
2013-01-11 18:37:00,32.7,30.1,29.83,NW,326,0.0,0.0,90,0.08,,,0.00,VWS V12.08,2013-01-11 17:37:00,
2013-01-11 18:42:00,32.5,29.7,29.83,WSW,246,0.0,0.0,89,0.08,,,0.00,VWS V12.08,2013-01-11 17:42:00,
2013-01-11 18:47:00,32.4,29.2,29.83,WNW,284,0.0,0.0,88,0.08,,,0.00,VWS V12.08,2013-01-11 17:47:00,
2013-01-11 18:52:00,32.4,29.2,29.85,WNW,297,0.0,0.0,88,0.00,,,0.00,VWS V12.08,2013-01-11 17:52:00,
2013-01-11 18:57:00,32.4,28.9,29.85,West,259,0.0,0.0,87,0.00,,,0.00,VWS V12.08,2013-01-11 17:57:00,
2013-01-11 19:02:00,32.2,28.5,29.85,West,273,0.0,0.0,86,0.00,,,0.00,VWS V12.08,2013-01-11 18:02:00,
2013-01-11 19:07:00,32.0,28.0,29.85,North,0,0.0,0.0,85,0.00,,,0.00,VWS V12.08,2013-01-11 18:07:00,
2013-01-11 19:12:00,31.8,27.3,29.85,West,273,0.0,0.0,83,0.00,,,0.00,VWS V12.08,2013-01-11 18:12:00,
2013-01-11 19:17:00,31.6,26.8,29.85,NW,305,0.0,0.0,82,0.00,,,0.00,VWS V12.08,2013-01-11 18:17:00,
2013-01-11 19:22:00,31.5,26.3,29.85,WNW,285,0.0,0.0,81,0.00,,,0.00,VWS V12.08,2013-01-11 18:22:00,
2013-01-11 19:27:00,31.3,26.1,29.85,West,276,0.0,0.0,81,0.00,,,0.00,VWS V12.08,2013-01-11 18:27:00,
2013-01-11 19:32:00,31.1,25.7,29.85,NNW,328,0.0,0.0,80,0.00,,,0.00,VWS V12.08,2013-01-11 18:32:00,
2013-01-11 19:37:00,31.1,25.4,29.85,NW,312,0.0,0.0,79,0.00,,,0.00,VWS V12.08,2013-01-11 18:37:00,
2013-01-11 19:42:00,30.7,24.7,29.85,WNW,285,0.0,0.0,78,0.00,,,0.00,VWS V12.08,2013-01-11 18:42:00,
2013-01-11 19:47:00,30.4,24.4,29.85,WNW,297,0.0,0.0,78,0.00,,,0.00,VWS V12.08,2013-01-11 18:47:00,
2013-01-11 19:52:00,30.2,23.9,29.85,NW,319,0.0,0.0,77,0.00,,,0.00,VWS V12.08,2013-01-11 18:52:00,
2013-01-11 19:57:00,30.0,23.7,29.85,WNW,289,0.0,0.0,77,0.00,,,0.00,VWS V12.08,2013-01-11 18:57:00,
2013-01-11 20:02:00,29.8,23.5,29.85,NW,324,0.0,0.0,77,0.00,,,0.00,VWS V12.08,2013-01-11 19:02:00,
2013-01-11 20:07:00,29.7,23.0,29.88,NW,309,0.0,0.0,76,0.00,,,0.00,VWS V12.08,2013-01-11 19:07:00,
2013-01-11 20:12:00,29.5,22.9,29.88,NW,322,0.0,0.0,76,0.00,,,0.00,VWS V12.08,2013-01-11 19:12:00,
2013-01-11 20:17:00,29.5,22.9,29.88,WNW,299,0.0,0.0,76,0.00,,,0.00,VWS V12.08,2013-01-11 19:17:00,
2013-01-11 20:22:00,29.5,22.5,29.88,NNW,334,0.0,0.0,75,0.00,,,0.00,VWS V12.08,2013-01-11 19:22:00,
2013-01-11 20:27:00,29.3,22.4,29.88,NNW,331,0.0,0.0,75,0.00,,,0.00,VWS V12.08,2013-01-11 19:27:00,
2013-01-11 20:32:00,29.1,22.2,29.88,NNW,331,0.0,0.0,75,0.00,,,0.00,VWS V12.08,2013-01-11 19:32:00,
2013-01-11 20:37:00,29.1,22.2,29.88,NNW,338,0.0,0.0,75,0.00,,,0.00,VWS V12.08,2013-01-11 19:37:00,
2013-01-11 20:42:00,28.9,22.0,29.88,NNW,338,0.0,0.0,75,0.00,,,0.00,VWS V12.08,2013-01-11 19:42:00,
2013-01-11 20:47:00,28.9,22.0,29.88,NNW,331,0.0,0.0,75,0.00,,,0.00,VWS V12.08,2013-01-11 19:47:00,
2013-01-11 20:52:00,28.9,22.0,29.88,West,266,0.0,0.0,75,0.00,,,0.00,VWS V12.08,2013-01-11 19:52:00,
2013-01-11 20:57:00,28.9,21.7,29.88,WNW,298,0.0,0.0,74,0.00,,,0.00,VWS V12.08,2013-01-11 19:57:00,
2013-01-11 21:02:00,28.9,21.7,29.88,NNW,328,0.0,0.0,74,0.00,,,0.00,VWS V12.08,2013-01-11 20:02:00,
2013-01-11 21:07:00,28.8,21.5,29.88,North,357,0.0,0.0,74,0.00,,,0.00,VWS V12.08,2013-01-11 20:07:00,
2013-01-11 21:12:00,28.8,21.5,29.88,West,276,0.0,0.0,74,0.00,,,0.00,VWS V12.08,2013-01-11 20:12:00,
2013-01-11 21:17:00,28.6,21.0,29.88,WNW,299,0.0,0.0,73,0.00,,,0.00,VWS V12.08,2013-01-11 20:17:00,
2013-01-11 21:22:00,28.6,21.0,29.91,NNW,331,0.0,0.0,73,0.00,,,0.00,VWS V12.08,2013-01-11 20:22:00,
2013-01-11 21:27:00,28.4,21.2,29.91,NW,320,0.0,0.0,74,0.00,,,0.00,VWS V12.08,2013-01-11 20:27:00,
2013-01-11 21:32:00,28.2,20.7,29.91,North,353,0.0,0.0,73,0.00,,,0.00,VWS V12.08,2013-01-11 20:32:00,
2013-01-11 21:37:00,27.9,20.3,29.91,NNW,327,0.0,0.0,73,0.00,,,0.00,VWS V12.08,2013-01-11 20:37:00,
2013-01-11 21:42:00,27.7,20.2,29.91,North,349,0.0,0.0,73,0.00,,,0.00,VWS V12.08,2013-01-11 20:42:00,
2013-01-11 21:47:00,27.5,20.0,29.91,NW,313,0.0,0.0,73,0.00,,,0.00,VWS V12.08,2013-01-11 20:47:00,
2013-01-11 21:52:00,27.5,20.0,29.91,NW,313,0.0,0.0,73,0.00,,,0.00,VWS V12.08,2013-01-11 20:52:00,
2013-01-11 21:57:00,27.5,20.0,29.91,West,280,0.0,0.0,73,0.00,,,0.00,VWS V12.08,2013-01-11 20:57:00,
2013-01-11 22:02:00,27.5,20.0,29.91,NW,311,0.0,0.0,73,0.00,,,0.00,VWS V12.08,2013-01-11 21:02:00,
2013-01-11 22:07:00,27.7,20.2,29.91,NW,313,0.0,0.0,73,0.00,,,0.00,VWS V12.08,2013-01-11 21:07:00,
2013-01-11 22:12:00,27.9,20.3,29.91,NNW,334,0.0,0.0,73,0.00,,,0.00,VWS V12.08,2013-01-11 21:12:00,
2013-01-11 22:17:00,27.9,20.3,29.91,NW,320,0.0,0.0,73,0.00,,,0.00,VWS V12.08,2013-01-11 21:17:00,
2013-01-11 22:22:00,27.9,20.3,29.91,North,0,0.0,0.0,73,0.00,,,0.00,VWS V12.08,2013-01-11 21:22:00,
2013-01-11 22:27:00,27.9,20.3,29.91,NNW,330,0.0,0.0,73,0.00,,,0.00,VWS V12.08,2013-01-11 21:27:00,
2013-01-11 22:32:00,27.7,20.2,29.91,NNW,335,0.0,0.0,73,0.00,,,0.00,VWS V12.08,2013-01-11 21:32:00,
2013-01-11 22:37:00,27.5,20.0,29.91,NNW,337,0.0,0.0,73,0.00,,,0.00,VWS V12.08,2013-01-11 21:37:00,
2013-01-11 22:42:00,27.5,20.0,29.91,NNW,332,0.0,0.0,73,0.00,,,0.00,VWS V12.08,2013-01-11 21:42:00,
2013-01-11 22:47:00,27.3,19.8,29.91,North,357,0.0,0.0,73,0.00,,,0.00,VWS V12.08,2013-01-11 21:47:00,
2013-01-11 22:52:00,27.3,19.8,29.94,NNW,339,0.0,0.0,73,0.00,,,0.00,VWS V12.08,2013-01-11 21:52:00,
2013-01-11 22:57:00,27.1,19.3,29.94,North,353,0.0,0.0,72,0.00,,,0.00,VWS V12.08,2013-01-11 21:57:00,
2013-01-11 23:02:00,27.0,19.1,29.94,WNW,294,0.0,0.0,72,0.00,,,0.00,VWS V12.08,2013-01-11 22:02:00,
2013-01-11 23:07:00,27.0,19.1,29.94,NNW,333,0.0,0.0,72,0.00,,,0.00,VWS V12.08,2013-01-11 22:07:00,
2013-01-11 23:12:00,27.0,19.1,29.94,NNW,343,0.0,0.0,72,0.00,,,0.00,VWS V12.08,2013-01-11 22:12:00,
2013-01-11 23:17:00,27.0,19.1,29.94,NNW,333,0.0,0.0,72,0.00,,,0.00,VWS V12.08,2013-01-11 22:17:00,
2013-01-11 23:22:00,27.0,19.1,29.94,NW,321,0.0,0.0,72,0.00,,,0.00,VWS V12.08,2013-01-11 22:22:00,
2013-01-11 23:27:00,26.6,19.1,29.94,North,349,0.0,0.0,73,0.00,,,0.00,VWS V12.08,2013-01-11 22:27:00,
2013-01-11 23:32:00,26.4,19.0,29.94,NNW,348,0.0,0.0,73,0.00,,,0.00,VWS V12.08,2013-01-11 22:32:00,
2013-01-11 23:37:00,26.2,18.8,29.94,NW,316,0.0,0.0,73,0.00,,,0.00,VWS V12.08,2013-01-11 22:37:00,
2013-01-11 23:42:00,26.2,18.8,29.94,NW,323,0.0,0.0,73,0.00,,,0.00,VWS V12.08,2013-01-11 22:42:00,
2013-01-11 23:47:00,26.2,18.8,29.94,NNW,334,0.0,0.0,73,0.00,,,0.00,VWS V12.08,2013-01-11 22:47:00,
2013-01-11 23:52:00,26.2,18.8,29.94,NNW,333,0.0,0.0,73,0.00,,,0.00,VWS V12.08,2013-01-11 22:52:00,
2013-01-11 23:57:00,26.2,18.8,29.94,NW,318,0.0,0.0,73,0.00,,,0.00,VWS V12.08,2013-01-11 22:57:00,